• In Slovakia
  • List of Countries
  • For 7 days
  • Water Temperature
  • Satellite Maps
  • Weather Map
  • Weather Widgets
  • user-avatar
    Login

    Hourly Weather Stupava

    Today, 17 October, Wednesday

    Time Temperature Precipitation Wind Pressure Humidity
    00:00 +13°C° 0 mm 2 mps 749 mmHg 55%
    01:00 +13°C° 0 mm 2 mps 749 mmHg 59%
    02:00 +12°C° 0 mm 2 mps 749 mmHg 60%
    03:00 +12°C° 0 mm 2 mps 749 mmHg 60%
    04:00 +12°C° 0 mm 2 mps 749 mmHg 61%
    05:00 +12°C° 0 mm 2 mps 749 mmHg 61%
    06:00 +12°C° 0 mm 2 mps 749 mmHg 60%
    07:00 +13°C° 0 mm 2 mps 749 mmHg 58%
    08:00 +14°C° 0 mm 2 mps 749 mmHg 55%
    09:00 +16°C° 0 mm 2 mps 749 mmHg 51%
    10:00 +17°C° 0 mm 2 mps 749 mmHg 48%
    11:00 +18°C° 0 mm 3 mps 749 mmHg 46%
    12:00 +19°C° 0 mm 3 mps 749 mmHg 44%
    13:00 +20°C° 0 mm 3 mps 749 mmHg 44%
    14:00 +20°C° 0 mm 3 mps 748 mmHg 45%
    15:00 +20°C° 0 mm 2 mps 748 mmHg 46%
    16:00 +20°C° 0 mm 2 mps 748 mmHg 47%
    17:00 +19°C° 0 mm 2 mps 748 mmHg 49%
    18:00 +18°C° 0 mm 2 mps 748 mmHg 50%
    19:00 +17°C° 0 mm 2 mps 748 mmHg 52%
    20:00 +17°C° 0 mm 2 mps 748 mmHg 52%
    21:00 +16°C° 0 mm 2 mps 748 mmHg 53%
    22:00 +16°C° 0 mm 2 mps 748 mmHg 53%
    23:00 +16°C° 0 mm 2 mps 748 mmHg 53%

    Tomorrow, 18 October, Thursday

    Time Temperature Precipitation Wind Pressure Humidity
    00:00 +16°C° 0 mm 2 mps 748 mmHg 53%
    01:00 +16°C° 0 mm 2 mps 748 mmHg 53%
    02:00 +15°C° 0 mm 2 mps 748 mmHg 54%
    03:00 +15°C° 0 mm 2 mps 748 mmHg 54%
    04:00 +15°C° 0 mm 2 mps 748 mmHg 55%
    05:00 +15°C° 0 mm 1 mps 748 mmHg 55%
    06:00 +15°C° 0 mm 1 mps 748 mmHg 55%
    07:00 +15°C° 0 mm 1 mps 748 mmHg 56%
    08:00 +16°C° 0 mm 1 mps 748 mmHg 52%
    09:00 +18°C° 0 mm 1 mps 748 mmHg 49%
    10:00 +19°C° 0 mm 1 mps 748 mmHg 45%
    11:00 +19°C° 0 mm 1 mps 748 mmHg 44%
    12:00 +20°C° 0 mm 1 mps 747 mmHg 42%
    13:00 +21°C° 0 mm 1 mps 747 mmHg 41%
    14:00 +20°C° 0 mm 1 mps 747 mmHg 43%
    15:00 +20°C° 0 mm 1 mps 747 mmHg 44%
    16:00 +19°C° 0 mm 1 mps 747 mmHg 46%
    17:00 +18°C° 0 mm 1 mps 747 mmHg 48%
    18:00 +18°C° 0 mm 1 mps 747 mmHg 50%
    19:00 +16°C° 0 mm 1 mps 748 mmHg 51%
    20:00 +15°C° 0 mm 1 mps 748 mmHg 53%
    21:00 +15°C° 0 mm 1 mps 748 mmHg 55%
    22:00 +15°C° 0 mm 1 mps 748 mmHg 56%
    23:00 +14°C° 0 mm 2 mps 748 mmHg 59%

    Day after tomorrow, 19 October, Friday

    Time Temperature Precipitation Wind Pressure Humidity
    00:00 +14°C° 0 mm 2 mps 748 mmHg 61%
    01:00 +13°C° 0 mm 2 mps 748 mmHg 64%
    02:00 +13°C° 0 mm 2 mps 748 mmHg 68%
    03:00 +12°C° 0 mm 2 mps 748 mmHg 71%
    04:00 +12°C° 0 mm 2 mps 748 mmHg 75%
    05:00 +12°C° 0 mm 2 mps 748 mmHg 77%
    06:00 +12°C° 0 mm 2 mps 749 mmHg 79%
    07:00 +10°C° 0 mm 2 mps 749 mmHg 81%
    08:00 +12°C° 0 mm 3 mps 749 mmHg 74%
    09:00 +14°C° 0 mm 3 mps 749 mmHg 67%
    10:00 +17°C° 0 mm 3 mps 749 mmHg 60%
    11:00 +18°C° 0 mm 3 mps 749 mmHg 56%
    12:00 +19°C° 0 mm 3 mps 749 mmHg 52%
    13:00 +21°C° 0 mm 3 mps 749 mmHg 49%
    14:00 +20°C° 0 mm 3 mps 749 mmHg 51%
    15:00 +20°C° 0 mm 3 mps 749 mmHg 53%
    16:00 +19°C° 0 mm 2 mps 749 mmHg 55%
    17:00 +18°C° 0 mm 2 mps 750 mmHg 60%
    18:00 +16°C° 0 mm 3 mps 750 mmHg 66%
    19:00 +14°C° 0 mm 3 mps 750 mmHg 72%
    20:00 +13°C° 0 mm 3 mps 751 mmHg 75%
    21:00 +13°C° 0 mm 3 mps 751 mmHg 78%
    22:00 +12°C° 0 mm 3 mps 751 mmHg 81%
    23:00 +12°C° 0 mm 3 mps 751 mmHg 83%

    20 October, Saturday

    Time Temperature Precipitation Wind Pressure Humidity
    00:00 +11°C° 0 mm 3 mps 752 mmHg 86%
    01:00 +11°C° 0 mm 3 mps 752 mmHg 88%
    02:00 +10°C° 0 mm 3 mps 752 mmHg 89%
    03:00 +10°C° 0 mm 3 mps 752 mmHg 90%
    04:00 +10°C° 0 mm 3 mps 752 mmHg 92%
    05:00 +10°C° 0 mm 3 mps 752 mmHg 91%
    06:00 +10°C° 0 mm 3 mps 752 mmHg 91%
    07:00 +10°C° 0 mm 3 mps 753 mmHg 91%
    08:00 +12°C° 0 mm 3 mps 753 mmHg 82%
    09:00 +13°C° 0 mm 4 mps 753 mmHg 73%
    10:00 +15°C° 0 mm 4 mps 753 mmHg 63%
    11:00 +17°C° 0 mm 4 mps 753 mmHg 60%
    12:00 +17°C° 0 mm 5 mps 753 mmHg 56%
    13:00 +19°C° 0 mm 5 mps 753 mmHg 53%
    14:00 +17°C° 0 mm 5 mps 753 mmHg 55%
    15:00 +16°C° 0 mm 5 mps 753 mmHg 57%
    16:00 +17°C° 0 mm 4 mps 753 mmHg 58%
    17:00 +14°C° 0 mm 4 mps 754 mmHg 63%
    18:00 +13°C° 0 mm 4 mps 754 mmHg 68%
    19:00 +12°C° 0 mm 3 mps 754 mmHg 72%
    20:00 +11°C° 0 mm 3 mps 755 mmHg 73%
    21:00 +10°C° 0 mm 3 mps 755 mmHg 74%
    22:00 +10°C° 0 mm 3 mps 755 mmHg 75%
    23:00 +9°C° 0 mm 3 mps 755 mmHg 74%

    21 October, Sunday

    Time Temperature Precipitation Wind Pressure Humidity
    00:00 +9°C° 0 mm 3 mps 755 mmHg 72%
    01:00 +8°C° 0 mm 3 mps 755 mmHg 71%
    02:00 +7°C° 0 mm 3 mps 755 mmHg 73%
    03:00 +7°C° 0 mm 3 mps 755 mmHg 75%
    04:00 +5°C° 0 mm 3 mps 755 mmHg 77%
    05:00 +5°C° 0 mm 3 mps 755 mmHg 76%
    06:00 +5°C° 0 mm 3 mps 755 mmHg 76%
    07:00 +5°C° 0 mm 3 mps 755 mmHg 76%
    08:00 +7°C° 0 mm 4 mps 755 mmHg 69%
    09:00 +10°C° 0 mm 4 mps 755 mmHg 62%
    10:00 +10°C° 0 mm 5 mps 755 mmHg 54%
    11:00 +12°C° 0 mm 5 mps 755 mmHg 52%
    12:00 +13°C° 0 mm 5 mps 754 mmHg 49%
    13:00 +14°C° 0 mm 5 mps 754 mmHg 47%
    14:00 +14°C° 0 mm 5 mps 754 mmHg 48%
    15:00 +13°C° 0 mm 4 mps 753 mmHg 50%
    16:00 +13°C° 0 mm 4 mps 753 mmHg 52%
    17:00 +12°C° 0 mm 3 mps 753 mmHg 57%
    18:00 +10°C° 0 mm 3 mps 754 mmHg 63%
    19:00 +9°C° 0 mm 3 mps 754 mmHg 69%
    20:00 +8°C° 0 mm 2 mps 754 mmHg 72%
    21:00 +8°C° 0 mm 2 mps 754 mmHg 75%
    22:00 +7°C° 0 mm 2 mps 754 mmHg 78%
    23:00 +7°C° 0 mm 2 mps 754 mmHg 80%

    22 October, Monday

    Time Temperature Precipitation Wind Pressure Humidity
    00:00 +6°C° 0 mm 2 mps 754 mmHg 82%
    01:00 +6°C° 0 mm 2 mps 753 mmHg 84%
    02:00 +6°C° 0 mm 2 mps 753 mmHg 85%
    03:00 +5°C° 0 mm 2 mps 753 mmHg 86%
    04:00 +5°C° 0 mm 2 mps 753 mmHg 88%
    05:00 +5°C° 0 mm 2 mps 753 mmHg 88%
    06:00 +5°C° 0 mm 2 mps 753 mmHg 88%
    07:00 +5°C° 0 mm 2 mps 753 mmHg 88%
    08:00 +7°C° 0 mm 2 mps 753 mmHg 78%
    09:00 +9°C° 0 mm 2 mps 753 mmHg 68%
    10:00 +11°C° 0 mm 3 mps 753 mmHg 58%
    11:00 +12°C° 0 mm 3 mps 753 mmHg 52%
    12:00 +13°C° 0 mm 3 mps 752 mmHg 47%
    13:00 +14°C° 0 mm 3 mps 752 mmHg 42%
    14:00 +15°C° 0 mm 2 mps 752 mmHg 43%
    15:00 +15°C° 0 mm 2 mps 752 mmHg 45%
    16:00 +14°C° 0 mm 2 mps 751 mmHg 47%
    17:00 +13°C° 0 mm 2 mps 751 mmHg 52%
    18:00 +12°C° 0 mm 2 mps 752 mmHg 56%
    19:00 +9°C° 0 mm 2 mps 752 mmHg 61%
    20:00 +9°C° 0 mm 2 mps 752 mmHg 64%
    21:00 +9°C° 0 mm 3 mps 752 mmHg 68%
    22:00 +8°C° 0 mm 3 mps 752 mmHg 71%
    23:00 +8°C° 0.1 mm 3 mps 751 mmHg 74%
    Show more